Location: Asheville, NC
(35.6000°N, 82.5500°W)
Time: 06:26:42

AO-7 - Pass Details

Date: 13 March 2018
Orbit: 1440 x 1459 km, 101.7° (Epoch: 16 March)

Event Time Altitude Azimuth Distance (km) Brightness Sun altitude
Rises 06:06:46 0° 9° (N) 4,544 ? -20.5°
Reaches altitude 10° 06:09:42 10° 3° (N) 3,561 ? -19.9°
Maximum altitude 06:17:22 44° 296° (WNW) 1,909 ? -18.3°
Enters shadow 06:22:54 19° 235° (SW) 2,891 ? -17.2°
